G4ZMG Weather Reports


time (UTC)temp
C
wind
direction
speed
KPH
gust
KPH
rain 1hr
cm
rain 24hr
cm
rain mn
cm
humidity
%
barometer
mb
20260507155044 14 193 0.0 0.0 0.00 0.00 0.00 60 1013.0
20260507154027 14 199 0.0 3.2 0.00 0.00 0.00 61 1013.1
20260507153047 14 210 0.0 0.0 0.00 0.00 0.00 62 1013.1
20260507152028 14 160 0.0 6.4 0.00 0.00 0.00 61 1013.2
20260507151004 14 200 0.0 3.2 0.00 0.00 0.00 60 1013.1
20260507150043 14 170 0.0 6.4 0.00 0.00 0.00 60 1013.2
20260507145029 14 175 0.0 0.0 0.00 0.00 0.00 59 1013.3
20260507144003 14 215 0.0 0.0 0.00 0.00 0.00 57 1013.3
20260507143037 15 206 0.0 0.0 0.00 0.00 0.00 56 1013.3
20260507142023 15 175 0.0 8.0 0.00 0.00 0.00 56 1013.4
20260507141048 15 121 0.0 1.6 0.00 0.00 0.00 59 1013.4
20260507140027 14 129 0.0 0.0 0.00 0.00 0.00 59 1013.5
20260507135010 15 140 0.0 0.0 0.00 0.00 0.00 60 1013.6
20260507134050 15 175 0.0 3.2 0.00 0.00 0.00 59 1013.6
20260507133039 15 160 0.0 1.6 0.00 0.00 0.00 60 1013.7
20260507132031 15 204 0.0 1.6 0.00 0.00 0.00 61 1013.7
20260507131006 15 175 0.0 4.8 0.00 0.00 0.00 58 1013.7
20260507130011 15 145 0.0 3.2 0.00 0.00 0.00 59 1013.8
20260507125038 16 147 0.0 8.0 0.00 0.00 0.00 56 1013.8
20260507124023 15 168 0.0 6.4 0.00 0.00 0.00 60 1013.8
20260507123036 15 175 0.0 9.7 0.00 0.00 0.00 61 1013.9
20260507122013 14 91 0.0 9.7 0.00 0.00 0.00 64 1013.9
20260507121045 15 118 0.0 4.8 0.00 0.00 0.00 65 1014.1
20260507120042 15 175 0.0 1.6 0.00 0.00 0.00 65 1014.1
20260507115029 14 202 0.0 0.0 0.00 0.00 0.00 67 1014.1
20260507114038 14 238 0.0 3.2 0.00 0.00 0.00 67 1014.2
20260507113038 13 199 0.0 0.0 0.00 0.00 0.00 71 1014.2
20260507112022 13 99 0.0 0.0 0.00 0.00 0.00 68 1014.4
20260507111003 13 240 0.0 1.6 0.00 0.00 0.00 74 1014.5
20260507110040 13 140 0.0 1.6 0.00 0.00 0.00 74 1014.6
20260507105026 12 175 0.0 1.6 0.00 0.00 0.00 76 1014.8
20260507104003 11 74 0.0 0.0 0.00 0.00 0.00 78 1014.5
20260507103036 11 77 0.0 0.0 0.00 0.00 0.00 78 1014.7
20260507102023 11 145 0.0 0.0 0.00 0.00 0.00 79 1014.8
20260507101003 10 185 0.0 0.0 0.00 0.00 0.00 80 1015.0
20260507100010 10 192 0.0 0.0 0.00 0.00 0.00 81 1014.9
20260507095044 10 191 0.0 0.0 0.00 0.00 0.00 82 1015.0
20260507094029 10 210 0.0 0.0 0.00 0.00 0.00 83 1015.0
20260507093005 9 212 0.0 0.0 0.00 0.00 0.00 84 1014.9
20260507092043 8 157 0.0 0.0 0.00 0.00 0.00 85 1014.9
20260507091028 8 213 0.0 0.0 0.00 0.00 0.00 86 1014.9
20260507090025 8 0.0 0.0 0.00 0.00 0.00 87 1014.9
20260507085005 -17 0.0 0.0 0.00 0.00 0.00 1015.0
20260507084027 -17 0.0 0.0 0.00 0.00 0.00 1015.0
20260507083007 -17 0.0 0.0 0.00 0.00 0.00 1015.0
20260507082043 -17 0.0 0.0 0.00 0.00 0.00 1014.9
20260507081027 -17 0.0 0.0 0.00 0.00 0.00 1014.9
20260507080030 -17 0.0 0.0 0.00 0.00 0.00 1014.8
20260507075012 -17 0.0 0.0 0.00 0.00 0.00 1014.8
20260507074010 6 293 0.0 0.0 0.00 0.00 0.00 91 1014.7
20260507073002 6 293 0.0 0.0 0.00 0.00 0.00 91 1014.7
20260507072030 6 291 0.0 0.0 0.00 0.00 0.00 91 1014.8
20260507071013 6 290 0.0 0.0 0.00 0.00 0.00 91 1014.6
20260507070046 6 290 0.0 0.0 0.00 0.00 0.00 92 1014.6
20260507065031 6 290 0.0 0.0 0.00 0.00 0.00 92 1014.7
20260507064010 6 289 0.0 0.0 0.00 0.00 0.00 92 1014.5
20260507063002 6 289 0.0 0.0 0.00 0.00 0.00 92 1014.5
20260507062043 5 289 0.0 0.0 0.00 0.00 0.00 92 1014.5
20260507061022 5 289 0.0 0.0 0.00 0.00 0.00 92 1014.5
20260507060027 5 0.0 0.0 0.00 0.00 0.00 92 1014.4
20260507055006 5 0.0 0.0 0.00 0.00 0.00 92 1014.4
20260507054030 5 0.0 0.0 0.00 0.00 0.00 92 1014.4
20260507053007 5 0.0 0.0 0.00 0.00 0.00 92 1014.3
20260507052043 5 0.0 0.0 0.00 0.00 0.00 92 1014.3
20260507051026 -17 0.0 0.0 0.00 0.00 0.00 1014.3
20260507050035 -17 0.0 0.0 0.00 0.00 0.00 1014.2
20260507045005 5 7 0.0 0.0 0.00 0.00 0.00 91 1014.3
20260507044025 5 7 0.0 0.0 0.00 0.00 0.00 91 1014.3
20260507043044 5 7 0.0 0.0 0.00 0.00 0.00 91 1014.2
20260507042027 5 7 0.0 0.0 0.00 0.00 0.00 91 1014.1
20260507041010 5 7 0.0 0.0 0.00 0.00 0.00 91 1014.1
20260507040009 5 7 0.0 0.0 0.00 0.00 0.00 91 1014.1
20260507035033 5 7 0.0 0.0 0.00 0.00 0.00 91 1014.1
20260507034009 5 7 0.0 0.0 0.00 0.00 0.00 91 1014.1
20260507033002 5 7 0.0 0.0 0.00 0.00 0.00 91 1014.1
20260507032045 5 7 0.0 0.0 0.00 0.00 0.00 91 1014.1
20260507031024 5 6 0.0 0.0 0.00 0.00 0.00 91 1014.3
20260507030036 5 6 0.0 0.0 0.00 0.00 0.00 90 1014.2
20260507025022 5 16 0.0 0.0 0.00 0.00 0.00 90 1014.2
20260507024003 5 16 0.0 0.0 0.00 0.00 0.00 90 1014.1
20260507023031 5 15 0.0 0.0 0.00 0.00 0.00 90 1014.1
20260507022044 5 14 0.0 0.0 0.00 0.00 0.00 90 1014.1
20260507021028 5 16 0.0 0.0 0.00 0.00 0.00 90 1014.2
20260507020010 5 15 0.0 0.0 0.00 0.00 0.00 90 1014.1
20260507015044 5 17 0.0 0.0 0.00 0.00 0.00 90 1014.1
20260507014028 6 16 0.0 0.0 0.00 0.00 0.00 89 1014.3
20260507013006 6 20 0.0 0.0 0.00 0.00 0.00 89 1014.3
20260507012035 6 19 0.0 0.0 0.00 0.00 0.00 89 1014.4
20260507011003 6 21 0.0 0.0 0.00 0.00 0.00 89 1014.4
20260507010006 6 20 0.0 0.0 0.00 0.00 0.00 88 1014.3
20260507005040 6 20 0.0 0.0 0.00 0.00 0.00 88 1014.3
20260507004029 6 23 0.0 0.0 0.00 0.00 0.00 88 1014.2
20260507003013 6 25 0.0 0.0 0.00 0.00 0.00 88 1014.4
20260507002044 6 24 0.0 0.0 0.00 0.00 0.00 88 1014.4
20260507001027 6 64 0.0 0.0 0.00 0.00 0.00 87 1014.2
20260507000009 6 18 0.0 0.0 0.00 0.00 0.00 87 1014.4
20260506235004 6 20 0.0 0.0 0.00 0.00 0.00 87 1014.4
20260506234043 6 33 0.0 0.0 0.00 0.00 0.00 86 1014.5
20260506233036 6 52 0.0 0.0 0.00 0.00 0.00 86 1014.6
20260506232028 6 52 0.0 0.0 0.00 0.00 0.00 86 1014.5
20260506231013 6 45 0.0 0.0 0.00 0.00 0.00 85 1014.4
20260506230009 6 33 0.0 0.0 0.00 0.00 0.00 85 1014.3
20260506225002 6 38 0.0 0.0 0.00 0.00 0.00 84 1014.3
20260506224043 7 35 0.0 0.0 0.00 0.00 0.00 84 1014.3
20260506223033 7 360 0.0 0.0 0.00 0.00 0.00 84 1014.3
20260506222010 7 22 0.0 0.0 0.00 0.00 0.00 83 1014.3
20260506221007 7 32 0.0 0.0 0.00 0.00 0.00 83 1014.3
20260506220035 7 13 0.0 0.0 0.00 0.00 0.00 82 1014.2
20260506215029 7 15 0.0 0.0 0.00 0.00 0.00 82 1014.2
20260506214020 7 28 0.0 0.0 0.00 0.00 0.00 81 1014.1
20260506213011 7 97 0.0 0.0 0.00 0.00 0.00 80 1014.0
20260506212009 7 27 0.0 0.0 0.00 0.00 0.00 79 1014.0
20260506211004 7 351 0.0 0.0 0.00 0.00 0.00 78 1013.9
20260506210004 7 349 0.0 0.0 0.00 0.00 0.00 77 1013.9
20260506205044 7 350 0.0 0.0 0.00 0.00 0.00 77 1013.7
20260506204041 8 16 0.0 0.0 0.00 0.00 0.00 76 1013.7
20260506203035 8 10 0.0 0.0 0.00 0.00 0.00 76 1013.6
20260506202032 8 38 0.0 0.0 0.00 0.00 0.00 75 1013.6
20260506201022 8 38 0.0 0.0 0.00 0.00 0.00 74 1013.5
20260506200046 8 38 0.0 0.0 0.00 0.00 0.00 73 1013.4
20260506195035 8 37 0.0 0.0 0.00 0.00 0.00 72 1013.2
20260506194029 9 38 0.0 0.0 0.00 0.00 0.00 71 1013.1
20260506193010 9 91 0.0 0.0 0.00 0.00 0.00 69 1013.0
20260506192006 10 97 0.0 0.0 0.00 0.00 0.00 67 1013.1
20260506191001 10 48 0.0 0.0 0.00 0.00 0.00 65 1013.0
20260506190046 10 60 0.0 0.0 0.00 0.00 0.00 64 1012.8
20260506185042 11 33 0.0 0.0 0.00 0.00 0.00 63 1012.8
20260506184037 11 43 0.0 0.0 0.00 0.00 0.00 61 1012.7
20260506183027 11 76 0.0 3.2 0.00 0.00 0.00 57 1012.6
20260506182009 11 62 0.0 1.6 0.00 0.00 0.00 56 1012.7
20260506181049 12 60 0.0 1.6 0.00 0.00 0.00 56 1012.5
20260506180009 12 77 0.0 0.0 0.00 0.00 0.00 55 1012.6
20260506175004 12 40 0.0 0.0 0.00 0.00 0.00 56 1012.4
20260506174045 12 99 0.0 1.6 0.00 0.00 0.00 55 1012.3
20260506173040 12 59 0.0 0.0 0.00 0.00 0.00 56 1012.3
20260506172025 12 108 0.0 3.2 0.00 0.00 0.00 55 1012.4
20260506171006 12 64 0.0 1.6 0.00 0.00 0.00 54 1012.3
20260506170039 12 68 1.6 1.6 0.00 0.00 0.00 53 1012.3
20260506165031 13 106 0.0 4.8 0.00 0.00 0.00 50 1012.2
20260506164020 13 35 0.0 0.0 0.00 0.00 0.00 49 1012.0
20260506163009 13 321 0.0 1.6 0.00 0.00 0.00 51 1012.1
20260506162005 13 42 0.0 6.4 0.00 0.00 0.00 50 1012.2
20260506161044 13 40 0.0 0.0 0.00 0.00 0.00 50 1012.1
20260506160029 13 345 0.0 1.6 0.00 0.00 0.00 50 1012.1